Regional Weather Roundup
Issued by NWS

Home | Current Version | Previous Version | Graphics & Text | Print | Product List | Glossary On
Versions: 1 2 3 4 5 6 7 8 9 10 11 12 13 14 15 16 17 18 19 20 21 22 23 24 25 26 27 28 29 30 31 32 33 34 35 36 37 38 39 40 41 42 43 44 45 46 47 48 49 50
000
ASUS43 KMPX 160501
RWRMN
WEATHER ROUNDUP FOR MINNESOTA
NATIONAL WEATHER SERVICE TWIN CITIES/CHANHASSEN MN
1200 AM CDT WED APR 16 2014


NOTE: "FAIR" INDICATES FEW OR NO CLOUDS BELOW 12,000 FEET WITH NO
SIGNIFICANT WEATHER AND/OR OBSTRUCTIONS TO VISIBILITY. N/A MEANS
CURRENT SKY AND/OR WEATHER CONDITIONS ARE NOT AVAILABLE.

MNZ060>063-068>070-160600-
   Twin Cities Metro

CITY           SKY/WX    TMP DP  RH WIND       PRES   REMARKS
TWIN CITIES    CLOUDY    34  15  46 SE12      30.06F WCI  25
ST PAUL        CLOUDY    34  16  47 SE9       30.08F WCI  27
CRYSTAL        CLOUDY    35  12  38 SE9       30.05F WCI  28
BLAINE         CLOUDY    36  12  38 E6        30.06F
EDEN PRAIRIE   CLOUDY    35  13  40 E10       30.03F WCI  27
LAKEVILLE      CLOUDY    30  19  64 E8        30.05F WCI  23
SOUTH ST PAUL  CLOUDY    37  16  41 SE3       30.07F
LAKE ELMO      CLOUDY    32  18  55 SE5       30.08F WCI  27
$$
MNZ001>005-007-008-013>017-022>024-027-028-160600-
   Northwest Minnesota

CITY           SKY/WX    TMP DP  RH WIND       PRES   REMARKS
BEMIDJI        CLOUDY    26   5  40 E7        30.03S WCI  18
HALLOCK        CLOUDY    27  12  54 E14       30.05F WCI  15
ROSEAU         PTCLDY    23  10  58 E9        30.08S WCI  13
WARROAD        PTCLDY    18   9  68 E5        30.09S WCI  11
THIEF RVR FALL CLOUDY    27   9  46 E12       30.03F WCI  16
CROOKSTON      CLOUDY    28  10  47 E12       30.02F WCI  18
FOSSTON        CLOUDY    27   9  46 E7        30.01F WCI  19
DETROIT LAKES  CLOUDY    32  10  40 SE9       29.98F WCI  24
MOORHEAD       CLOUDY    34  10  37 E9G16     29.97F WCI  26
PARK RAPIDS    CLOUDY    29   4  34 E8        30.00F WCI  21
$$
MNZ006-009>011-018-025>026-160600-
   North Central Minnesota

CITY           SKY/WX    TMP DP  RH WIND       PRES   REMARKS
BAUDETTE       PTCLDY    19   7  59 NE5       30.09S WCI  12
FLAG ISLAND    PTCLDY    16   9  73 CALM      30.09S
INTL FALLS     CLEAR     15   9  76 CALM      30.10R
WASKISH        CLOUDY    21   9  58 NE7       30.07S WCI  13
LONGVILLE      CLOUDY    25  10  54 CALM      30.05S
GRAND RAPIDS   MOCLDY    25   1  36 SE3       30.06S
CRANE LAKE     CLEAR      9   3  78 CALM      30.13S
ORR            CLEAR     16   5  62 CALM      30.07S
COOK           CLEAR     18  10  73 CALM      30.09S
$$
MNZ012-019>021-037-160600-
   Northeast Minnesota

CITY           SKY/WX    TMP DP  RH WIND       PRES   REMARKS
DULUTH         CLEAR     22   9  57 CALM      30.08S
ELY            CLEAR     12   7  79 CALM      30.09S
HIBBING        PTCLDY    19  12  74 CALM      30.07S
EVELETH        PTCLDY    18  12  79 CALM      30.09S
DULUTH HARBOR  CLEAR     27  10  50 CALM      30.13S
TWO HARBORS    CLEAR     18  10  73 CALM      30.09S
SILVER BAY     CLEAR     14  10  85 CALM      30.10S
GRAND MARAIS     N/A     22   6  50 CALM      30.15R
G MARAIS ARPRT CLEAR      9   0  66 CALM      30.08R
$$
MNZ029>031-032-039>041-046>048-054>057-064-160600-
   West Central Minnesota

CITY           SKY/WX    TMP DP  RH WIND       PRES   REMARKS
FERGUS FALLS   CLOUDY    30  12  47 SE16G24   29.94F WCI  19
WHEATON        CLOUDY    36  18  48 E20G26    29.93F
MORRIS         CLOUDY    34  12  40 E20G25    29.92S WCI  22
ALEXANDRIA     CLOUDY    31  12  45 E15       29.97F WCI  20
ELBOW LAKE     CLOUDY    32  15  49 E16G23    29.94F WCI  21
WADENA         CLOUDY    28  10  47 E12       29.99S WCI  18
GLENWOOD       CLOUDY    30  12  47 E18G24    29.97S WCI  18
APPLETON       CLOUDY    36  14  41 E21G26    29.89F
BENSON         CLOUDY    34  12  40 SE15G24   29.93F WCI  24
ORTONVILLE     CLOUDY    34  12  40 E20G28    29.88F WCI  22
MADISON        CLOUDY    37  19  48 SE21G26   29.88F
WILLMAR        FAIR      34  12  40 E20       29.97F WCI  22
$$
MNZ033>034-036-042>043-049>051-058-059-160600-
   Central Minnesota

CITY           SKY/WX    TMP DP  RH WIND       PRES   REMARKS
ST CLOUD       CLOUDY    33   6  32 E7        30.03F WCI  27
SAUK CENTRE    CLOUDY    31  14  49 E10       29.99F WCI  22
PAYNESVILLE    CLOUDY    32  10  40 E13       30.00S WCI  22
AITKIN         MOCLDY    27  10  50 CALM      30.04F
PINE RIVER     CLOUDY    27  12  54 E6        30.07S WCI  20
BRAINERD       CLOUDY    32   5  32 VRB3      30.04F
STAPLES        CLOUDY    28   3  34 E7        30.01F WCI  21
LONG PRAIRIE   CLOUDY    30  12  47 E7        30.01S WCI  23
LITTLE FALLS   CLOUDY    32  10  40 E7        30.03S WCI  26
LITCHFIELD     CLOUDY    34  14  44 E12       30.00S WCI  25
BUFFALO        CLOUDY    33  13  42 E7        30.04F WCI  27
MAPLE LAKE     CLOUDY    33  15  48 E9        30.03F WCI  25
$$
MNZ037-044-045-052-053-160600-
   East Central Minnesota

CITY           SKY/WX    TMP DP  RH WIND       PRES   REMARKS
PRINCETON      CLOUDY    32   9  37 E6        30.05F WCI  26
MORA           CLOUDY    30  14  51 E7        30.08F WCI  23
CAMBRIDGE      CLOUDY    34  14  44 E3        30.05F
RUSH CITY      CLOUDY    29  10  45 E5        30.08F WCI  24
MOOSE LAKE     CLEAR     23  12  63 CALM      30.08R
HINCKLEY       CLOUDY    28  14  54 E3        30.08F
CLOQUET        CLEAR    N/A N/A N/A CALM      30.08S
MCGREGOR       CLEAR     27   9  46 E3        30.07S
$$
MNZ071>073-080-081-089-090-097-098-160600-
   Southwest Minnesota

CITY           SKY/WX    TMP DP  RH WIND       PRES   REMARKS
MONTEVIDEO     CLOUDY    34  18  51 SE21G28   29.91F WCI  22
GRANITE FALLS  CLOUDY    34  17  48 E13G21    29.93F WCI  25
CANBY          CLOUDY    34  22  61 E20G26    29.86F WCI  23
MARSHALL       CLOUDY    36  18  48 SE17G25   29.88S
REDWOOD FALLS  CLOUDY    35  18  49 E13       29.94F WCI  26
OLIVIA         CLOUDY    34  19  55 E15G22    29.95F WCI  24
PIPESTONE      CLOUDY    36  25  64 SE23      29.78F
WINDOM         MOCLDY    34  23  64 E20       29.90F WCI  22
WORTHINGTON    CLOUDY    34  19  55 E17       29.87F WCI  23
JACKSON        MOCLDY    32  23  69 E20       29.91F WCI  20
TRACY          CLOUDY    35  22  60 SE16G24   29.89S WCI  24
SLAYTON        CLOUDY    33  23  65 SE22G32   29.84F WCI  21
$$
MNZ065>067-074>077-082>085-091>093-160600-
   South Central Minnesota

CITY           SKY/WX    TMP DP  RH WIND       PRES   REMARKS
MANKATO        CLOUDY    34  18  51 SE17      30.01F WCI  23
NEW ULM        CLOUDY    34  18  51 E13G20    29.97F WCI  25
ST JAMES       CLOUDY    34  21  60 E15       29.96F WCI  24
FAIRMONT       MOCLDY    34  21  60 SE18      29.96F WCI  23
GLENCOE        CLOUDY    34  16  46 E13       30.00F WCI  25
FARIBAULT      CLOUDY    36  16  44 E9        30.04F
OWATONNA       CLOUDY    34  19  55 E13       30.03F WCI  25
WASECA         CLOUDY    34  21  60 E14       30.03F WCI  24
ALBERT LEA     CLOUDY    34  19  55 SE12      30.02F WCI  25
$$
MNZ078>079-086>088-094>096-160600-
   Southeast Minnesota

CITY           SKY/WX    TMP DP  RH WIND       PRES   REMARKS
ROCHESTER      CLOUDY    31  19  61 SE10      30.06F WCI  22
RED WING       CLOUDY    36  16  44 SE7       30.09S
STANTON        CLOUDY    34  18  52 E7        30.05F WCI  28
DODGE CENTER   CLOUDY    34  23  64 E9        30.05F WCI  26
WINONA         CLOUDY    34  19  55 SE5       30.13S WCI  30
AUSTIN         CLOUDY    30  21  69 SE10      30.04F WCI  21
PRESTON        CLOUDY    31  20  63 E6        30.08S WCI  25
$$
ABBREVIATIONS USED IN REMARKS
   TC - TEMPERATURES IN CELSIUS
  WCI - WIND CHILL INDEX
   HX - HEAT INDEX
  VSB - VISIBILITY
$$


USA.gov is the U.S. government's official web portal to all federal, state and local government web resources and services.